C/2015 ER61 ( PanSTARRS )

Japanese version
Home page
Updated on December 31, 2016

---------------------------------------------------------------------

* Profile

Discovery Date March 14, 2015
Magnitude 20.7 mag
Discoverer Pan-STARRS 1 telescope (Haleakala)

* Pictures

* Orbital Elements

Epoch 2017 May 7.0 TT = JDT 2457880.5
T 2017 May  9.94920 TT                                  MPCW
q   1.0421170            (2000.0)            P               Q
z  +0.0025987      Peri.   68.19832     +0.54603168     +0.83282649
 +/-0.0000028      Node   235.21734     -0.80368148     +0.49012066
e   0.9972918      Incl.    6.34908     -0.23652796     +0.25725817
From 315 observations 2015 Jan. 21-2016 Apr. 16, mean residual 0".3.

* Finding Charts

* Magnitudes Graph

        m1 = 3.0 + 5 log d + 15.0 log r  [    ,-390]  (             - 2016 Apr. 14)
        m1 = 6.5 + 5 log d + 10.0 log r  [-390,    ]  (2016 Apr. 14 -             )

---------------------------------------------------------------------

The orbital elements are published on M.P.E.C. 2016-H35.
The charts are made with StellaNavigator Ver.10 (AstroArts).
The magnitudes graphs are made with Comet for Windows.

---------------------------------------------------------------------

Copyright(C) Seiichi Yoshida (comet@aerith.net). All rights reserved.